Regional Weather Roundup
Issued by NWS

Home | Current Version | Previous Version | Graphics & Text | Print | Product List | Glossary On
Versions: 1 2 3 4 5 6 7 8 9 10 11 12 13 14 15 16 17 18 19 20 21 22 23 24 25 26 27 28 29 30 31 32 33 34 35 36 37 38 39 40 41 42 43 44 45 46 47 48 49 50
000
ASUS43 KDTX 301101
RWRMI
MICHIGAN HOURLY REGIONAL WEATHER ROUNDUP
NATIONAL WEATHER SERVICE DETROIT/PONTIAC MI
700 AM EDT WED JUL 30 2014

NOTE: "FAIR" INDICATES FEW OR NO CLOUDS BELOW 12,000 FEET WITH NO
SIGNIFICANT WEATHER AND/OR OBSTRUCTION TO VISIBILITY.

MIZ047>049-052>055-059>063-066>070-074>076-081>083-301200-
SOUTHEAST LOWER MICHIGAN

CITY           SKY/WX    TMP DP  RH WIND       PRES   REMARKS
ADRIAN         PTCLDY    56  55  97 CALM      30.00R
ALMA           CLOUDY    55  54  96 CALM      29.99S
ANN ARBOR      MOCLDY    59  54  83 NW7       29.99R
BAD AXE        PTCLDY    50  50 100 CALM      29.97R
CARO           CLOUDY    53  53 100 CALM      29.97R
DETROIT CITY   CLEAR     60  55  83 W3        29.98R
DETROIT        CLOUDY    58  55  90 W5        29.99R
FLINT          MOCLDY    54  52  93 CALM      29.98S FOG
GROSSE ILE     MOCLDY    59  55  88 W5        29.98R
HILLSDALE      CLEAR     54  54 100 CALM      30.01R FOG
HOWELL         CLEAR     53  53  99 CALM      29.99S FOG

CITY           SKY/WX    TMP DP  RH WIND       PRES   REMARKS
JACKSON        CLEAR     53  52  96 W3        30.00R FOG
LAMBERTVILLE   MOCLDY    59  55  88 CALM      30.00R
LANSING        MOCLDY    55  53  93 CALM      29.99S FOG
LAPEER         FOG       56  55  96 CALM      29.98S VSB 1/4
MASON          FOG       53  52  97 CALM      29.99S VSB 1/2
MONROE         MOCLDY    55  55 100 CALM      29.97S FOG
MT. CLEMENS    PTCLDY    58  57  96 W6        29.96R
PONTIAC        PTCLDY    56  53  90 CALM      29.98R
PORT HOPE        N/A     60  55  83 CALM      29.95R
PORT HURON     MOCLDY    54  54 100 W3        29.97R FOG
TRI CITIES     LGT RAIN  57  54  89 SW5       29.99R
TROY           PTCLDY    57  56  96 CALM      29.99S
SAGINAW HB     CLOUDY    55  55 100 CALM      29.98R FOG
$$
MIZ043>046-050>051-056>058-064>065-071>073-077>080-301200-
SOUTHWEST LOWER MICHIGAN

CITY           SKY/WX    TMP DP  RH WIND       PRES   REMARKS
BATTLE CREEK   PTCLDY    57  54  89 SW5       30.01R
BENTON HARBOR  PTCLDY    53  52  96 CALM      30.01S FOG
BIG RAPIDS     CLOUDY    56  56 100 CALM      30.00R
COLDWATER      CLEAR     56  55  97 SW5       30.01R FOG
FREMONT        CLOUDY    52  52 100 CALM      30.00R FOG
HOLLAND        PTCLDY    57  54  89 SW3       30.01R
GRAND RAPIDS   PTCLDY    56  55  97 W3        30.00R
IONIA          FOG       54  54  98 W3        29.99S VSB 1/2
KALAMAZOO      MOCLDY    57  55  93 CALM      30.02R FOG
LUDINGTON      MOCLDY    49  49  97 CALM      30.01R
MARSHALL       FOG       51  51  99 CALM      30.00R VSB 1/2
MOUNT PLEASANT CLOUDY    56  55  96 CALM      29.99R
MUSKEGON       FOG       55  52  89 SW5       30.00R VSB 1/4
SOUTH HAVEN    PTCLDY    55  55 100 CALM      30.01S
$$
MIZ016>042-301200-
NORTHERN LOWER MICHIGAN

CITY           SKY/WX    TMP DP  RH WIND       PRES   REMARKS
ALPENA         CLEAR     50  49  96 W5        29.97R
BEAVER ISLAND  CLOUDY    54  54 100 N3        29.99S
BELLAIRE       FOG       50  49  96 CALM      29.99R VSB<1/4
CADILLAC       FOG       52  52 100 CALM      30.00R VSB<1/4
CHARLEVOIX     MOCLDY    58  57  96 NW7       30.02R
FRANKFORT      FOG       48  46  92 CALM      30.01R VSB<1/4
GAYLORD        CLEAR     48  47  96 CALM      29.99R
GRAYLING       FOG       50  50 100 CALM      30.00R VSB<1/4
HARBOR SPRINGS CLEAR     51  49  93 CALM      29.99R
HOUGHTON LAKE  CLEAR     46  45  96 NW3       30.00R
MANISTEE       CLOUDY    50  46  87 CALM      30.01R VSB 1/4
OSCODA         CLEAR     51  50  97 NW3       29.96R
PELLSTON       PTCLDY    45  45 100 CALM      29.99R
ROGERS CITY    CLEAR     51  51 100 W6        29.99R
TRAVERSE CITY  PTCLDY    50  48  93 CALM      29.99R
$$
MIZ007>008-015-301200-
EASTERN UPPER MICHIGAN

CITY           SKY/WX    TMP DP  RH WIND       PRES   REMARKS
KINROSS        CLOUDY    48  48 100 NW6       29.99R VSB<1/4
MACKINAC ISLAN FOG       49  49 100 N7        29.98R VSB 1/4
NEWBERRY       FOG       47  47 100 NW5       29.99S VSB<1/4
S. S. MARIE    FOG       50  48  93 W5        29.99R VSB 1
$$
MIZ004>006-011>014-085-301200-
CENTRAL UPPER MICHIGAN

CITY           SKY/WX    TMP DP  RH WIND       PRES   REMARKS
MANISTIQUE     FOG       51  51 100 N7        30.00R VSB 1/4
ESCANABA         N/A     45  43  93 NW3       30.01R VSB 1/2
MENOMINEE      CLEAR     54  52  94 NW6       30.02R
$$
MIZ001>003-009>011-084-301200-
WESTERN UPPER MICHIGAN

CITY           SKY/WX    TMP DP  RH WIND       PRES   REMARKS
IRON MOUNTAIN  CLEAR     48  46  93 CALM      30.03R
HOUGHTON       PTCLDY    50  47  89 NW9       30.03S
COPPER HARBOR    N/A     50  46  86 W5        30.02R
$$

ABBREVIATIONS USED IN REMARKS
   TC - TEMPERATURE IN CELSIUS
  WCI - WIND CHILL INDEX
   HX - HEAT INDEX
  VSB - VISIBILITY



USA.gov is the U.S. government's official web portal to all federal, state and local government web resources and services.